Weather History for Atlanta Dekalb, GA

Change the Weather History Date:

Saturday, January 19, 2013

  Actual Average Record
Temperature  
Mean Temperature 41 °F 42 °F  
Max Temperature 54 °F 51 °F 64 °F (1999)
Min Temperature 28 °F 33 °F 23 °F (2003)
Degree Days  
Heating Degree Days 24 23  
Month to date heating degree days 437  
Since 1 July heating degree days 1605  
Moisture  
Dew Point 27 °F    
Average Humidity 60    
Maximum Humidity 92    
Minimum Humidity 31    
Precipitation  
Precipitation 0.00 in 0.18 in 2.40 in (2002)
Month to date precipitation 2.51  
Year to date precipitation 2.51  
Snow  
Snow 0.00 in - - ()
Month to date snowfall  
Since 1 July snowfall  
Snow Depth -    
Sea Level Pressure  
Sea Level Pressure 30.38 in    
Wind  
Wind Speed 1 mph (SE)    
Max Wind Speed 6 mph    
Max Gust Speed -    
Visibility 10 miles    
Events      
T = Trace of Precipitation, MM = Missing Value Source: NWS Daily Summary

Daily Weather History Graph

Daily Weather History Graph

Search for Another Location

Airport:

Trip Planner

Search our weather history database for the weather conditions in past years. The results will help you decide how hot, cold, wet, or windy it might be!

Date:

Astronomy

Jan. 19, 2013 Rise Set
Actual Time 7:40 AM EST 5:55 PM EST
Civil Twilight 7:14 AM EST 6:22 PM EST
Nautical Twilight 6:43 AM EST 6:52 PM EST
Astronomical Twilight 6:13 AM EST 7:22 PM EST
Moon 12:18 PM EST (1/19) 1:18 AM EST (1/19)
Length of Visible Light 11h 08m
Length of Day
10h 14m
First Quarter, 57% of the Moon is Illuminated
Jan 19
First Quarter
Jan 26
Full
Feb 3
Last Quarter
Feb 10
New
Feb 17
First Quarter

Hourly Weather History & Observations

Time (EST) Temp. Windchill Dew Point Humidity Pressure Visibility Wind Dir Wind Speed Gust Speed Precip Events Conditions
12:53 AM 32.0 °F - 30.0 °F 92% 30.48 in 10.0 mi Calm Calm - N/A   Clear
1:53 AM 34.0 °F - 28.9 °F 82% 30.47 in 10.0 mi Calm Calm - N/A   Clear
2:53 AM 37.9 °F 34.4 °F 27.0 °F 65% 30.45 in 10.0 mi ESE 4.6 mph - N/A   Clear
3:53 AM 37.9 °F 33.5 °F 26.1 °F 62% 30.45 in 10.0 mi SE 5.8 mph - N/A   Clear
4:53 AM 36.0 °F 33.3 °F 25.0 °F 64% 30.44 in 10.0 mi SE 3.5 mph - N/A   Clear
5:53 AM 36.0 °F - 24.1 °F 62% 30.44 in 10.0 mi Calm Calm - N/A   Clear
6:53 AM 33.1 °F 30.0 °F 25.0 °F 72% 30.45 in 10.0 mi ENE 3.5 mph - N/A   Clear
7:53 AM 28.0 °F - 25.0 °F 88% 30.48 in 10.0 mi Calm Calm - N/A   Clear
8:53 AM 35.1 °F 32.2 °F 28.9 °F 78% 30.48 in 10.0 mi Variable 3.5 mph - N/A   Clear
9:53 AM 39.0 °F - 27.0 °F 62% 30.49 in 10.0 mi Calm Calm - N/A   Clear
10:53 AM 43.0 °F - 26.1 °F 51% 30.48 in 10.0 mi Calm Calm - N/A   Clear
11:53 AM 48.0 °F - 24.1 °F 39% 30.44 in 10.0 mi Calm Calm - N/A   Clear
12:53 PM 50.0 °F - 24.1 °F 36% 30.38 in 10.0 mi SSW 3.5 mph - N/A   Clear
1:53 PM 53.1 °F - 25.0 °F 34% 30.34 in 10.0 mi SW 5.8 mph - N/A   Clear
2:53 PM 53.1 °F - 23.0 °F 31% 30.30 in 10.0 mi Calm Calm - N/A   Clear
3:53 PM 54.0 °F - 24.1 °F 31% 30.29 in 10.0 mi Variable 4.6 mph - N/A   Clear
4:53 PM 53.1 °F - 24.1 °F 32% 30.28 in 10.0 mi Calm Calm - N/A   Clear
5:53 PM 51.1 °F - 27.0 °F 39% 30.28 in 10.0 mi Calm Calm - N/A   Clear
6:53 PM 45.0 °F - 28.9 °F 53% 30.30 in 10.0 mi Calm Calm - N/A   Clear
7:53 PM 43.0 °F - 30.0 °F 60% 30.30 in 10.0 mi Calm Calm - N/A   Clear
8:53 PM 39.9 °F - 32.0 °F 73% 30.30 in 10.0 mi Calm Calm - N/A   Clear
9:53 PM 39.9 °F - 33.1 °F 77% 30.29 in 10.0 mi Calm Calm - N/A   Clear
10:53 PM 39.0 °F - 33.1 °F 79% 30.27 in 10.0 mi Calm Calm - N/A   Clear
11:53 PM 37.9 °F - 33.1 °F 83% 30.25 in 10.0 mi Calm Calm - N/A   Clear